Главная страница
METAR-TAF:

METAR-TAF

Аэропорты :

Chautauqua County/Dunkirk Airport

Dunkirk, Нью-Йорк, США

широта: 42-29-35N, долгота: 079-16-33W, высота над уровнем моря: 211 м

Текущие метеонаблюдения

Эта сводка был подготовлена 58 минут назад, в 23:53 UTC
Ветер 7 Узел от восточно-юго-восточный
Температура 23°C
Влажность 73%
Давление 1016 hPa
Видимость: 16.1 км
ясное небо

METAR: KDKK 202353Z AUTO 11007KT 10SM CLR 23/18 A3000 RMK AO2 SLP157 T02280183 10267 20228 53001 $

Время: 20:51 (00:51 UTC)


TAF: отсутствует

Метеонаблюдения и прогнозы для более 4000 аэропортов (сводки METAR и TAF).

Имеющиеся станции представлены на карте желтыми и красными точками.

Чтобы увидеть название станции, наведите на нее мышь.

Затем щелкните, чтобы увидеть метеонаблюдения и метеопрогнозы.

Управление картой: чтобы увеличить масштаб, щелкните зеленые кнопки с черным крестиком; чтобы уменьшить масштаб, щелкните зеленую кнопку с тире; для просмотра соседних карт щелкайте зеленые стрелки.


METAR-TAF: